Home   Weather   39°50'N, 77°55'W   Past weeks
Flag for USA

Past Weather in 39°50'N, 77°55'W, USA — Yesterday and Last 2 Weeks

Now
56 °F

Sunny.


Feels Like: 51 °F
Forecast: 60 / 43 °F
Wind: 20 mph from Northwest

Location: Washington County Regional Airport

Current Time: Oct 18, 2019 at 12:47:28 pm

Latest Report: Oct 18, 2019 at 11:53 am


Visibility: 10 mi

Pressure: 30.02 "Hg

Humidity: 44%

Dew Point: 34 °F

Location of 39°50'N, 77°55'WLocation

Past Weather in 39°50'N, 77°55'W — Graph

°F

39°50'N, 77°55'W Temperature Yesterday

Maximum temperature yesterday: 56 °F (at 1:53 pm)
Minimum temperature yesterday: 49 °F (at 6:53 am)
Average temperature yesterday: 52 °F

High & Low Weather Summary for the Past Weeks

 TemperatureHumidityPressure
High80 °F (Oct 3, 3:02 pm)93% (Oct 4, 3:12 am)30.46 "Hg (Oct 4, 3:12 am)
Low41 °F (Oct 13, 6:53 am)24% (Oct 14, 3:53 pm)29.56 "Hg (Oct 17, 2:53 am)
Average59 °F67%30.10 "Hg
* Reported Oct 3 10:53 am — Oct 18 10:53 am, 39°50'N, 77°55'W. Weather by CustomWeather, © 2019

Note: Actual official high and low records may vary slightly from our data, if they occured in-between our weather recording intervals... More about our weather records

Advertising

39°50'N, 77°55'W Weather History for the Previous 24 Hours

Scroll right to see more
 ConditionsComfort  
Time TempWeatherWind HumidityBarometerVisibility
10:53 am
Fri, Oct 18
55 °FPassing clouds.13 mph47%30.01 "Hg10 mi
9:53 am52 °FPassing clouds.16 mph50%30.01 "Hg10 mi
8:53 am49 °FPassing clouds.8 mph59%30.01 "Hg10 mi
7:53 am47 °FPassing clouds.14 mph61%29.98 "Hg10 mi
6:53 am48 °FOvercast.8 mph61%29.96 "Hg10 mi
5:53 am48 °FOvercast.10 mph61%29.94 "Hg10 mi
4:53 am49 °FOvercast.12 mph59%29.92 "Hg10 mi
3:53 am49 °FOvercast.6 mph59%29.91 "Hg10 mi
2:53 am49 °FOvercast.8 mph59%29.90 "Hg10 mi
1:53 am48 °FPassing clouds.12 mph61%29.89 "Hg10 mi
12:53 am49 °FOvercast.16 mph59%29.88 "Hg10 mi
11:53 pm
Thu, Oct 17
50 °FOvercast.14 mph54%29.88 "Hg10 mi
10:53 pm50 °FOvercast.12 mph54%29.88 "Hg10 mi
9:53 pm49 °FPassing clouds.16 mph55%29.85 "Hg10 mi
8:53 pm51 °FPassing clouds.18 mph50%29.83 "Hg10 mi
7:53 pm51 °FPassing clouds.23 mph52%29.81 "Hg10 mi
6:53 pm52 °FOvercast.16 mph50%29.80 "Hg10 mi
5:53 pm52 °FOvercast.16 mph53%29.77 "Hg10 mi
4:53 pm53 °FPartly sunny.24 mph52%29.74 "Hg10 mi
3:53 pm53 °FMostly cloudy.28 mph52%29.73 "Hg10 mi
2:53 pm55 °FOvercast.26 mph51%29.71 "Hg10 mi
1:53 pm56 °FPartly sunny.30 mph47%29.69 "Hg10 mi
12:53 pm55 °FPartly sunny.23 mph49%29.67 "Hg10 mi
Weather by CustomWeather, © 2019

See weather overview